Regional Weather Roundup
Issued by NWS Goodland, KS

Home | Current Version | Previous Version | Graphics & Text | Print | Product List | Glossary On
Versions: 1 2 3 4 5 6 7 8 9 10 11 12 13 14 15 16 17 18 19 20 21 22 23 24 25 26 27 28 29 30 31 32 33 34 35 36 37 38 39 40 41 42 43 44 45 46 47 48 49 50
000
ASUS43 KGLD 220859
RWRGLD

GOODLAND FORECAST AREA HOURLY WEATHER ROUNDUP
NATIONAL WEATHER SERVICE GOODLAND KS
300 AM MDT MON SEP 22 2014

...OFFICIAL OBSERVATIONS...

CITY           SKY/WX    TMP DP  RH WIND       PRES   REMARKS
GOODLAND KS    PTCLDY    52  43  71 S7        30.31S
HILL CITY KS   CLOUDY    55  46  71 CALM      30.30S
IMPERIAL NEB   CLOUDY    58  41  53 S9        30.28F
MCCOOK NEB     MOCLDY    54  44  69 E5        30.29F
AKRON CO       CLOUDY    59  40  49 S17G25    30.28F
BURLINGTON CO  PTCLDY    56  39  53 S13       30.31F
LIMON CO       PTCLDY    51  38  60 SE12      30.33F
$$

...UNOFFICIAL OBSERVATIONS...

CITY           SKY/WX    TMP DP  RH WIND       PRES   REMARKS
COLBY KS       CLOUDY    61  45  55 SE12      30.31R
GOVE KS          N/A     55  32  41 MISG        N/A
NORTON KS      MOCLDY    54  39  58 CALM      30.29S
SHARON SPRINGS   N/A     53  43  68 S9          N/A
WAKEENEY KS      N/A     58  39  48 MISG        N/A
TRENTON NEB      N/A     54  32  43 SE8         N/A
KIT CARSON CO    N/A     55  40  56 CALM        N/A
YUMA CO          N/A     60  42  51 CALM        N/A
$$


USA.gov is the U.S. government's official web portal to all federal, state and local government web resources and services.